Tulsa, OK

12:21 AM CDT on August 24, 2017 (GMT -0500)
Tulsa International

Weather History for KTUL - October, 2013

Change the Weather History Date:

Saturday, October 26, 2013

  Actual Average Record
Temperature  
Mean Temperature 58 °F 59 °F  
Max Temperature 67 °F 70 °F 90 °F (1950)
Min Temperature 49 °F 48 °F 27 °F (1957)
Degree Days  
Heating Degree Days 7 7  
Month to date heating degree days 162 121  
Since 1 July heating degree days 163 145  
Cooling Degree Days 0 1  
Month to date cooling degree days 66 57  
Year to date cooling degree days 2043 2022  
Growing Degree Days 7 (Base 50)    
Moisture  
Dew Point 45 °F    
Average Humidity 74    
Maximum Humidity 89    
Minimum Humidity 59    
Precipitation  
Precipitation 0.00 in 0.12 in 2.48 in (1919)
Month to date precipitation 2.38 3.31  
Year to date precipitation 28.26 35.05  
Sea Level Pressure  
Sea Level Pressure 30.15 in    
Wind  
Wind Speed 7 mph (South)    
Max Wind Speed 15 mph    
Max Gust Speed 20 mph    
Visibility 10 miles    
Events      
T = Trace of Precipitation, MM = Missing Value Source: NWS Daily Summary

Daily Weather History Graph

Daily Weather History Graph

Search for Another Location

Airport or City:

Trip Planner

Search our weather history database for the weather conditions in past years. The results will help you decide how hot, cold, wet, or windy it might be!

Date:

Astronomy

Oct. 26, 2013 Rise Set
Actual Time 7:40 AM CDT 6:33 PM CDT
Civil Twilight 7:14 AM CDT 6:59 PM CDT
Nautical Twilight 6:44 AM CDT 7:29 PM CDT
Astronomical Twilight 6:14 AM CDT 7:59 PM CDT
Moon No Moon Rise 1:56 PM CDT (10/26)
Length of Visible Light 11h 45m
Length of Day
10h 52m
Waning Gibbous, 53% of the Moon is Illuminated
Oct 26
Waning Gibbous
Oct 26
Last Quarter
Nov 3
New
Nov 9
First Quarter
Nov 17
Full

Hourly Weather History & Observations

Time (CDT) Temp. Dew Point Humidity Pressure Visibility Wind Dir Wind Speed Gust Speed Precip Events Conditions
12:53 AM 51.1 °F 37.0 °F 59% 30.21 in 10.0 mi South 15.0 mph - N/A   Mostly Cloudy
1:53 AM 50.0 °F 37.9 °F 63% 30.20 in 10.0 mi South 13.8 mph - N/A   Overcast
2:53 AM 50.0 °F 37.9 °F 63% 30.19 in 10.0 mi South 10.4 mph - N/A   Overcast
3:53 AM 50.0 °F 37.9 °F 63% 30.18 in 10.0 mi South 10.4 mph - N/A   Overcast
4:53 AM 50.0 °F 37.9 °F 63% 30.19 in 10.0 mi South 8.1 mph - N/A   Mostly Cloudy
5:53 AM 50.0 °F 37.9 °F 63% 30.19 in 10.0 mi South 6.9 mph - N/A   Mostly Cloudy
6:53 AM 48.9 °F 39.0 °F 69% 30.18 in 10.0 mi SSE 8.1 mph - N/A   Overcast
7:53 AM 48.9 °F 39.0 °F 69% 30.17 in 10.0 mi South 8.1 mph - N/A   Overcast
8:53 AM 50.0 °F 39.0 °F 66% 30.18 in 10.0 mi South 8.1 mph - N/A   Overcast
9:53 AM 53.1 °F 41.0 °F 64% 30.18 in 10.0 mi South 6.9 mph - N/A   Mostly Cloudy
10:53 AM 55.9 °F 44.1 °F 64% 30.18 in 10.0 mi SSW 9.2 mph - N/A   Overcast
11:53 AM 57.9 °F 46.0 °F 65% 30.17 in 10.0 mi SSW 8.1 mph - N/A   Overcast
12:53 PM 61.0 °F 48.0 °F 62% 30.15 in 10.0 mi Variable 6.9 mph - N/A   Overcast
1:53 PM 64.0 °F 50.0 °F 60% 30.12 in 10.0 mi SW 3.5 mph - N/A   Overcast
2:53 PM 64.9 °F 50.0 °F 58% 30.12 in 10.0 mi NNE 9.2 mph - N/A   Overcast
3:53 PM 64.0 °F 50.0 °F 60% 30.12 in 10.0 mi NNW 3.5 mph - N/A   Overcast
4:53 PM 64.0 °F 51.1 °F 63% 30.11 in 10.0 mi SSE 8.1 mph - N/A   Overcast
5:53 PM 63.0 °F 51.1 °F 65% 30.09 in 10.0 mi East 4.6 mph - N/A   Mostly Cloudy
6:53 PM 62.1 °F 51.1 °F 67% 30.11 in 10.0 mi Calm Calm - N/A   Overcast
7:53 PM 62.1 °F 51.1 °F 67% 30.12 in 10.0 mi NNE 3.5 mph - N/A   Overcast
8:53 PM 59.0 °F 51.1 °F 75% 30.12 in 10.0 mi North 3.5 mph - N/A   Scattered Clouds
9:53 PM 55.0 °F 51.1 °F 86% 30.13 in 9.0 mi North 3.5 mph - N/A   Mostly Cloudy
10:53 PM 54.0 °F 50.0 °F 86% 30.14 in 9.0 mi Calm Calm - N/A   Mostly Cloudy
11:46 PM 53.1 °F 50.0 °F 89% 30.15 in 9.0 mi NNW 4.6 mph - N/A   Mostly Cloudy
11:53 PM 54.0 °F 50.0 °F 86% 30.14 in 9.0 mi North 5.8 mph - N/A   Mostly Cloudy